Flag for Germany Weather past 2 weeks in Bad Nauheim, Hesse, Germany

Now
30 °F

Fog.


Feels Like: 30 °F
Forecast: 30 / 34 °F
Wind: 1 mph from East

Location: Giessen

Current Time: Dec 26, 2014 at 11:13:15 PM

Latest Report: Dec 26, 2014 at 10:00 PM


Visibility: 4 mi

Pressure: 30.27 "Hg

Humidity: 99%

Dew point: 29 °F

Location of Bad NauheimLocation

Historic Weather in Bad Nauheim — Graph

°F

Bad Nauheim temperature yesterday

Maximum temperature yesterday: 42 °F (at 12:00 AM)
Minimum temperature yesterday: 35 °F (at 11:00 PM)
Average temperature yesterday: 39 °F

Past Weeks' High & Low Weather Summary

 TemperatureHumidityPressure
High54 °F (Dec 18, 9:00 PM)100% (Dec 11, 9:00 PM)30.45 "Hg (Dec 11, 9:00 PM)
Low30 °F (Dec 26, 9:00 PM)72% (Dec 26, 1:00 PM)29.54 "Hg (Dec 12, 6:00 PM)
Average42 °F92%30.04 "Hg
* Reported Dec 11 9:00 PM — Dec 26 9:00 PM, Bad Nauheim, Weather by CustomWeather, © 2014

Note: Actual official high and low records may vary slightly from our data, if they occured in-between our weather recording intervals... More about our weather records

Advertising

Bad Nauheim weather history for previous 24 hours

 ConditionsComfort  
Time TempWeatherWind HumidityBarometerVisibility
9:00 PM
Dec 26
30 °FOvercast.No wind98%30.30 "Hg5 mi
8:00 PM32 °FOvercast.1 mph95%30.32 "Hg9 mi
7:00 PM31 °FOvercast.3 mph92%30.33 "Hg12 mi
6:00 PM33 °FOvercast.2 mph86%30.34 "Hg17 mi
5:00 PM33 °FPassing clouds.2 mph87%30.36 "Hg17 mi
4:00 PM36 °FOvercast.3 mph81%30.36 "Hg22 mi
3:00 PM38 °FPartly sunny.3 mph73%30.36 "Hg28 mi
2:00 PM38 °FPassing clouds.3 mph75%30.37 "Hg28 mi
1:00 PM38 °FPassing clouds.5 mph72%30.39 "Hg28 mi
12:00 PM38 °FOvercast.5 mph81%30.40 "Hg22 mi
11:00 AM36 °FSunny.2 mph98%30.41 "Hg7 mi
10:00 AM33 °FPassing clouds.3 mph99%30.41 "Hg5 mi
9:00 AM33 °FScattered clouds.3 mph99%30.41 "Hg8 mi
8:00 AM31 °FClear.5 mph98%30.40 "Hg9 mi
7:00 AM32 °FPassing clouds.2 mph98%30.39 "Hg8 mi
6:00 AM32 °FClear.2 mph98%30.39 "Hg9 mi
5:00 AM31 °FClear.3 mph98%30.39 "Hg6 mi
4:00 AM33 °FPassing clouds.3 mph98%30.38 "Hg7 mi
3:00 AM35 °FOvercast.5 mph96%30.38 "Hg11 mi
2:00 AM34 °FPassing clouds.3 mph96%30.37 "Hg11 mi
1:00 AM33 °FClear.5 mph95%30.36 "Hg12 mi
12:00 AM35 °FPassing clouds.5 mph92%30.36 "Hg12 mi
11:00 PM
Dec 25
35 °FClear.6 mph93%30.34 "Hg13 mi
Weather by CustomWeather, © 2014

See weather overviewHow to use our weather pages